Home > Weather > Bitburg > Past weeks

Flag for Germany Past Weather in Bitburg, Rhineland-Palatinate, Germany — Yesterday and Last 2 Weeks

Now
65 °F

Partly sunny.


Feels Like: 65 °F
Forecast: 51 / 63 °F
Wind: 15 mph from Southwest

Location: Spangdahlem

Current Time: Jul 1, 2016 at 1:42:13 PM

Latest Report: Jul 1, 2016 at 12:58 PM


Visibility: N/A

Pressure: 29.96 "Hg

Humidity: 73%

Dew Point: 56 °F

Location of BitburgLocation

Past Weather in Bitburg — Graph

°F

Bitburg Temperature Yesterday

Maximum temperature yesterday: 68 °F (at 5:58 PM)
Minimum temperature yesterday: 57 °F (at 7:58 AM)
Average temperature yesterday: 63 °F

High & Low Weather Summary for the Past Weeks

 TemperatureHumidityPressure
High88 °F (Jun 23, 4:58 PM)100% (Jun 17, 1:58 AM)30.25 "Hg (Jun 17, 1:58 AM)
Low43 °F (Jun 20, 5:58 AM)45% (Jun 29, 5:58 PM)29.56 "Hg (Jun 16, 10:58 PM)
Average61 °F82%30.01 "Hg
* Reported Jun 16 11:58 AM — Jul 1 11:58 AM, Bitburg, Weather by CustomWeather, © 2016

Note: Actual official high and low records may vary slightly from our data, if they occured in-between our weather recording intervals... More about our weather records

Advertising

Bitburg Weather History for the Previous 24 Hours

Scroll right to see more
 ConditionsComfort  
Time TempWeatherWind HumidityBarometerVisibility
11:58 AM
Fri, Jul 1
64 °FBroken clouds.13 mph71%29.98 "HgN/A
11:01 AM64 °FBroken clouds.20 mph78%30.01 "HgN/A
9:58 AM66 °FBroken clouds.13 mph78%29.95 "HgN/A
8:58 AM62 °FScattered clouds.10 mph87%29.96 "HgN/A
7:58 AM61 °FOvercast.12 mph88%29.94 "HgN/A
6:58 AM61 °FOvercast.9 mph90%29.94 "HgN/A
5:58 AM60 °FOvercast.8 mph91%29.94 "HgN/A
4:58 AM61 °FOvercast.9 mph88%29.93 "HgN/A
3:58 AM61 °FPassing clouds.8 mph88%29.93 "HgN/A
2:58 AM61 °FPassing clouds.10 mph88%29.93 "HgN/A
1:58 AM62 °FPassing clouds.10 mph87%29.95 "HgN/A
12:58 AM63 °FPassing clouds.9 mph83%29.95 "HgN/A
11:58 PM
Thu, Jun 30
63 °FPartly cloudy.10 mph81%29.96 "HgN/A
11:03 PM63 °FPartly cloudy.8 mph83%30.00 "HgN/A
10:04 PM64 °FBroken clouds.7 mph78%29.99 "HgN/A
8:58 PM64 °FScattered clouds.7 mph78%29.93 "HgN/A
8:02 PM66 °FScattered clouds.7 mph73%29.98 "HgN/A
6:58 PM67 °FScattered clouds.12 mph70%29.92 "HgN/A
5:58 PM68 °FScattered clouds.13 mph69%29.91 "HgN/A
4:58 PM66 °FScattered clouds.13 mph68%29.93 "HgN/A
3:58 PM66 °FScattered clouds.13 mph69%29.93 "HgN/A
3:01 PM66 °FBroken clouds.13 mph68%29.98 "HgN/A
1:58 PM65 °FBroken clouds.10 mph69%29.93 "HgN/A
Weather by CustomWeather, © 2016

See weather overviewHow to use our weather pages